Other Surface Observations
Issued by NWS Charleston, SC

Home | Current Version | Previous Version | Text Only | Print | Product List | Glossary On
Versions: 1 2 3 4 5 6 7 8 9 10 11 12 13 14 15 16 17 18 19 20 21 22 23 24 25 26 27 28 29 30 31 32 33 34 35 36 37 38 39 40 41 42 43 44 45 46 47 48 49 50
000
SXUS52 KCHS 260212
OSOCHS

MARINE OBSERVATIONS
NATIONAL WEATHER SERVICE CHARLESTON SC
1000 PM EDT THU MAY 25 2017

...DOWNTOWN CHARLESTON AND HARBOR...

CITY           SKY/WX    TMP DP  RH WIND       PRES   REMARKS
WATERFRONT PRK   N/A     71  56  58 SW6       29.84R

...LAKE MOULTRIE...

CITY           SKY/WX    TMP DP  RH WIND       PRES   REMARKS
PINOPOLIS        N/A     70  59  68 SW8       29.74R

...LAKE AND SUPPLEMENTAL COASTAL OBSERVATIONS...

STATION/POSITION TIME  TEMP    WIND        PRES    WAVE   SWELL
                       AIR SEA DIR/SP/G            HT/PER HT/PER/DIR
                 (UTC) (F)     (DEG/KT/KT) (MB)    (FT/S) (FT/S/D)
FORT PULASKI     0142   73     250/  5/  7 1012.0R
SAPELO ISLAND    0100   75     260/  6     1011.0
WINYAH BAY       0045   71     240/  7     1008.0
LAKE MURRAY      0120   70     260/ 12/ 15 1008.1
ACE BASIN NERRS  0045   71     240/  2     1010.0


...C-MAN AND BUOY OBSERVATIONS...

STATION/POSITION TIME  TEMP    WIND        PRES    WAVE   SWELL
                       AIR SEA DIR/SP/G            HT/PER HT/PER/DIR
                 (UTC) (F)     (DEG/KT/KT) (MB)    (FT/S) (FT/S/D)
BUOY 41004       0200   74 75  250/ 19/ 23 1010.8
BUOY 41008       0150   76 77  260/ 14/ 16 1011.6R   3/ 4   2/ 90/ 9
FOLLY BEACH CMAN 0200   72     240/  8/ 11 1011.8R
CAPERS NS BUOY   0108   79 77  270/ 17/ 23 1009.4R
FRIPP NS BUOY    0108   75 77  260/ 16/ 21 1010.3R
5E ST. MARYS GA  0200      78                N/A     2/ 6


STATION/POSITION TIME  TEMP    WIND        PRES    WAVE   SWELL
                       AIR SEA DIR/SP/G            HT/PER HT/PER/DIR
                 (UTC) (F)     (DEG/KT/KT) (MB)    (FT/S) (FT/S/D)
FRYING PAN BUOY  0200   74 75  250/ 21/ 27 1009.0
BUOY 41025       0150   73 78  250/ 27/ 33 1005.0R  10/ 8   7/220/ 8
CAPE LOOKOUT NC  0200   72     250/ 24/ 33 1006.5R
BUOY 41002       0150   77 77  250/ 23/ 29 1010.7R  10/ 9
BUOY 41010       0200   79 78  200/  4/  6 1013.3
ST AUGUSTINE FL  0200   73 76  250/  5/  6 1013.8R

$$




USA.gov is the U.S. government's official web portal to all federal, state and local government web resources and services.